This is the latest recevied weather packets stored in our database for station/object GBTWP-2. If no packets are shown the sender has not sent any weather packets the latest 10 day(s).
| Time | Temp. | Humidity | Pressure | Rain* | Wind** | Luminosity | Snow |
|---|---|---|---|---|---|---|---|
| 1788105718 | 18.33° C | 98% | 1020.9 hPa | 0 mm | - | 56 W/m² | - |
| 1788105420 | 18.33° C | 98% | 1021.2 hPa | 0 mm | - | 72 W/m² | - |
| 1788105120 | 18.33° C | 98% | 1021.3 hPa | 6.1 mm | - | 41 W/m² | - |
| 1788104820 | 18.33° C | 98% | 1021.2 hPa | 12.7 mm | - | 38 W/m² | - |
| 1788104519 | 17.78° C | 98% | 1021.2 hPa | 16.76 mm | - | 22 W/m² | - |
| 1788104220 | 17.78° C | 98% | 1021.3 hPa | 16.76 mm | - | 18 W/m² | - |
| 1788103920 | 17.78° C | 98% | 1021.5 hPa | 10.67 mm | - | 23 W/m² | - |
| 1788103620 | 17.78° C | 98% | 1021.4 hPa | 7.87 mm | - | 23 W/m² | - |
| 1788103319 | 18.33° C | 98% | 1021.7 hPa | 4.32 mm | - | 24 W/m² | - |
| 1788103020 | 18.33° C | 98% | 1021.8 hPa | 3.05 mm | - | 44 W/m² | - |
| 1788102720 | 18.33° C | 98% | 1021.8 hPa | 3.05 mm | - | 56 W/m² | - |
| 1788102420 | 18.33° C | 98% | 1021.7 hPa | 3.05 mm | - | 50 W/m² | - |
| 1788102120 | 18.33° C | 98% | 1021.8 hPa | 1.27 mm | - | 39 W/m² | - |
| 1788101818 | 18.33° C | 98% | 1022.1 hPa | 1.78 mm | - | 39 W/m² | - |
| 1788101520 | 18.33° C | 98% | 1022.1 hPa | 3.05 mm | - | 51 W/m² | - |
| 1788101219 | 18.33° C | 98% | 1022.2 hPa | 4.83 mm | - | 89 W/m² | - |
| 1788100920 | 18.33° C | 98% | 1022.3 hPa | 4.83 mm | - | 45 W/m² | - |
| 1788100619 | 18.33° C | 98% | 1022.1 hPa | 4.83 mm | - | 31 W/m² | - |
| 1788100319 | 18.33° C | 98% | 1022.2 hPa | 3.05 mm | - | 24 W/m² | - |
| 1788100020 | 18.33° C | 98% | 1022.3 hPa | 3.05 mm | - | 29 W/m² | - |
| 1788099720 | 18.33° C | 98% | 1022.3 hPa | 4.83 mm | - | 37 W/m² | - |
| 1788099420 | 18.33° C | 98% | 1022 hPa | 4.32 mm | - | 76 W/m² | - |
| 1788099120 | 18.33° C | 98% | 1022.1 hPa | 3.05 mm | - | 63 W/m² | - |
| 1788098820 | 18.33° C | 98% | 1021.9 hPa | 4.32 mm | - | 29 W/m² | - |
| 1788098520 | 18.33° C | 98% | 1022.2 hPa | 4.83 mm | - | 30 W/m² | - |
* Rain latest hour (hover to see other rain measurements)
** Current wind speed in m/s (hover to see current wind gust speed)